Stad Amsterdam — PECA — position and weather

sailwx.info

Track history (hours):
 
Tides and Currents Weather Stations Pressure Air Temp Water Temp Dewpoint Dewpoint Depression Visibility Wind Speed Wind Dir Waves Ship Positions

Stad Amsterdam (Netherlands)

Ship's website: http://www.stadamsterdam.com/content/home/index.xml

Last reported at 2018-May-24 02:30 UTC. Time now 2018-May-24 02:34 UTC.
Position N 39°28' W 028°21'.

Length 76 m; beam 10 m.

Type: Sailing vessel. MMSI: 246494000.

Date/timePositionNaut miles runAvg speedWind from/ knotsBaromVisibWave heightAir tempDewpointWater temp
2018-May-24 02:30N 39°28' W 028°21'3 6.8
2018-May-24 02:00N 39°26' W 028°17'4 7.3
2018-May-24 01:30N 39°24' W 028°13'3 5.8
2018-May-24 01:00N 39°23' W 028°10'3 6.1
2018-May-24 00:30N 39°21' W 028°06'3 6.7
2018-May-24 00:00N 39°20' W 028°02'4 7.1
2018-May-23 23:31N 39°18' W 027°58'4 7.8
2018-May-23 23:00N 39°16' W 027°54'4 7.3
2018-May-23 22:30N 39°15' W 027°50'3 6.5
2018-May-23 22:01N 39°14' W 027°46'3 5.5
2018-May-23 21:30N 39°14' W 027°49'4 7.1
2018-May-23 21:00N 39°13' W 027°54'4 7.7
2018-May-23 20:30N 39°13' W 027°59'4 7.8
2018-May-23 20:00N 39°13' W 028°04'3 5.9
2018-May-23 19:30N 39°12' W 028°07'2 4.6
2018-May-23 19:00N 39°10' W 028°10'3 5.3
2018-May-23 18:30N 39°08' W 028°11'3 5.2
2018-May-23 18:00N 39°06' W 028°13'3 5.1
2018-May-23 17:30N 39°04' W 028°15'3 5.1
2018-May-23 17:00N 39°02' W 028°16'3 6.1
2018-May-23 16:30N 38°59' W 028°18'3 6.9
2018-May-23 16:00N 38°56' W 028°20'3 6.7
2018-May-23 15:30N 38°53' W 028°22'3 5.3
2018-May-23 15:00N 38°50' W 028°24'3 5.9
2018-May-23 14:30N 38°48' W 028°26'3 5.9
2018-May-23 14:00N 38°45' W 028°28'3 5.8
2018-May-23 13:30N 38°43' W 028°30'2 3.6
2018-May-23 13:00N 38°41' W 028°30'1 2.7
2018-May-23 12:30N 38°40' W 028°30'1 1.7
2018-May-23 12:00N 38°39' W 028°31'2 3.8
2018-May-23 11:30N 38°38' W 028°32'2 4.8
2018-May-23 11:00N 38°35' W 028°33'3 5.3
2018-May-23 10:31N 38°33' W 028°35'2 3.7
2018-May-23 09:58N 38°32' W 028°37'0 0.0
2018-May-23 09:28N 38°32' W 028°37'0 0.0
2018-May-23 08:58N 38°32' W 028°37'0 0.0
2018-May-23 08:28N 38°32' W 028°37'0 0.0
2018-May-23 07:58N 38°32' W 028°37'0 0.0
2018-May-23 07:28N 38°32' W 028°37'0 0.0
2018-May-23 06:58N 38°32' W 028°37'0 0.0
2018-May-23 06:28N 38°32' W 028°37'0 0.0
2018-May-23 05:58N 38°32' W 028°37'0 0.0
2018-May-23 05:28N 38°32' W 028°37'0 0.0
2018-May-23 04:58N 38°32' W 028°37'0 0.0
2018-May-23 04:28N 38°32' W 028°37'0 0.0
2018-May-23 03:58N 38°32' W 028°37'0 0.0
2018-May-23 03:28N 38°32' W 028°37'0 0.0
2018-May-23 02:55N 38°32' W 028°37'0 0.0
2018-May-23 02:28N 38°32' W 028°37'0 0.0
2018-May-23 01:58N 38°32' W 028°37'0 0.0
2018-May-23 01:28N 38°32' W 028°37'0 0.0
2018-May-23 00:58N 38°32' W 028°37'0 0.0
2018-May-23 00:28N 38°32' W 028°37'0 0.0
2018-May-22 23:58N 38°32' W 028°37'0 0.0
2018-May-22 23:28N 38°32' W 028°37'0 0.0
2018-May-22 22:58N 38°32' W 028°37'0 0.0
2018-May-22 22:28N 38°32' W 028°37'0 0.0
2018-May-22 21:58N 38°32' W 028°37'0 0.0
2018-May-22 21:28N 38°32' W 028°37'0 0.0
2018-May-22 20:58N 38°32' W 028°37'0 0.0
2018-May-22 20:28N 38°32' W 028°37'0 0.0
2018-May-22 19:58N 38°32' W 028°37'0 0.0
2018-May-22 19:28N 38°32' W 028°37'0 0.0
2018-May-22 18:58N 38°32' W 028°37'0 0.0
2018-May-22 18:28N 38°32' W 028°37'0 0.0
2018-May-22 17:58N 38°32' W 028°37'0 0.0
2018-May-22 17:28N 38°32' W 028°37'0 0.0
2018-May-22 16:58N 38°32' W 028°37'0 0.0
2018-May-22 16:25N 38°32' W 028°37'0 0.0
2018-May-22 15:58N 38°32' W 028°37'0 0.0
2018-May-22 15:28N 38°32' W 028°37'0 0.0
2018-May-22 14:58N 38°32' W 028°37'0 0.0
2018-May-22 14:28N 38°32' W 028°37'0 0.0
2018-May-22 13:58N 38°32' W 028°37'0 0.0
2018-May-22 13:28N 38°32' W 028°37'0 0.0
2018-May-22 12:58N 38°32' W 028°37'0 0.0
2018-May-22 12:25N 38°32' W 028°37'0 0.0
2018-May-22 11:58N 38°32' W 028°37'0 0.0
2018-May-22 11:28N 38°32' W 028°37'0 0.0
2018-May-22 10:58N 38°32' W 028°37'0 0.0
2018-May-22 10:28N 38°32' W 028°37'0 0.0
2018-May-22 09:58N 38°32' W 028°37'0 0.0
2018-May-22 09:28N 38°32' W 028°37'0 0.0
2018-May-22 08:58N 38°32' W 028°37'0 0.0
2018-May-22 08:28N 38°32' W 028°37'0 0.0
2018-May-22 07:58N 38°32' W 028°37'0 0.0
2018-May-22 07:28N 38°32' W 028°37'0 0.0
2018-May-22 06:58N 38°32' W 028°37'0 0.0
2018-May-22 06:28N 38°32' W 028°37'0 0.0
2018-May-22 05:58N 38°32' W 028°37'0 0.0
2018-May-22 05:28N 38°32' W 028°37'0 0.0
2018-May-22 04:58N 38°32' W 028°37'0 0.0
2018-May-22 04:28N 38°32' W 028°37'0 0.0
2018-May-22 03:55N 38°32' W 028°37'0 0.0
2018-May-22 03:28N 38°32' W 028°37'0 0.0
2018-May-22 02:58N 38°32' W 028°37'0 0.0
2018-May-22 02:28N 38°32' W 028°37'0 0.0
2018-May-22 01:58N 38°32' W 028°37'0 0.0
2018-May-22 01:28N 38°32' W 028°37'0 0.0
2018-May-22 00:55N 38°32' W 028°37'0 0.0
2018-May-22 00:28N 38°32' W 028°37'0 0.0
2018-May-21 23:58N 38°32' W 028°37'0 0.0
2018-May-21 23:28N 38°32' W 028°37'0 0.0
2018-May-21 22:58N 38°32' W 028°37'0 0.0
2018-May-21 22:28N 38°32' W 028°37'0 0.0
2018-May-21 21:58N 38°32' W 028°37'0 0.0
2018-May-21 21:28N 38°32' W 028°37'0 0.0
2018-May-21 20:55N 38°32' W 028°37'0 0.0
2018-May-21 20:28N 38°32' W 028°37'0 0.0
2018-May-21 19:58N 38°32' W 028°37'0 0.0
2018-May-21 19:28N 38°32' W 028°37'0 0.0
2018-May-21 18:58N 38°32' W 028°37'0 0.0
2018-May-21 18:28N 38°32' W 028°37'0 0.0
2018-May-21 17:58N 38°32' W 028°37'0 0.0
2018-May-21 17:28N 38°32' W 028°37'0 0.0
2018-May-21 16:58N 38°32' W 028°37'0 0.0
2018-May-21 16:28N 38°32' W 028°37'0 0.0
2018-May-21 15:58N 38°32' W 028°37'0 0.0
2018-May-21 15:28N 38°32' W 028°37'0 0.0
2018-May-21 14:58N 38°32' W 028°37'0 0.0
2018-May-21 14:28N 38°32' W 028°37'0 0.0
2018-May-21 13:58N 38°32' W 028°37'0 0.0
2018-May-21 13:28N 38°32' W 028°37'0 0.0
2018-May-21 12:58N 38°32' W 028°37'0 0.0
2018-May-21 12:28N 38°32' W 028°37'0 0.0
2018-May-21 11:58N 38°32' W 028°37'0 0.0
2018-May-21 11:28N 38°32' W 028°37'0 0.0
2018-May-21 10:58N 38°32' W 028°37'0 0.0
2018-May-21 10:25N 38°32' W 028°37'0 0.0
2018-May-21 09:58N 38°32' W 028°37'0 0.0
2018-May-21 09:25N 38°32' W 028°37'0 0.0
2018-May-21 08:55N 38°32' W 028°37'0 0.0
2018-May-21 08:28N 38°32' W 028°37'0 0.0
2018-May-21 07:58N 38°32' W 028°37'0 0.0
2018-May-21 07:28N 38°32' W 028°37'0 0.0
2018-May-21 06:58N 38°32' W 028°37'0 0.0
2018-May-21 06:25N 38°32' W 028°37'0 0.0
2018-May-21 05:58N 38°32' W 028°37'0 0.0
2018-May-21 05:25N 38°32' W 028°37'0 0.0
2018-May-21 04:58N 38°32' W 028°37'0 0.0
2018-May-21 04:28N 38°32' W 028°37'0 0.0
2018-May-21 03:58N 38°32' W 028°37'0 0.0
2018-May-21 03:28N 38°32' W 028°37'0 0.0
2018-May-21 02:58N 38°32' W 028°37'0 0.0
2018-May-21 02:28N 38°32' W 028°37'0 0.0
2018-May-21 01:58N 38°32' W 028°37'0 0.0
2018-May-21 01:28N 38°32' W 028°37'0 0.0
2018-May-21 00:58N 38°32' W 028°37'0 0.0
2018-May-21 00:28N 38°32' W 028°37'0 0.0
2018-May-20 23:58N 38°32' W 028°37'0 0.0
2018-May-20 23:28N 38°32' W 028°37'0 0.0
2018-May-20 22:58N 38°32' W 028°37'0 0.0
2018-May-20 22:28N 38°32' W 028°37'0 0.0
2018-May-20 21:58N 38°32' W 028°37'0 0.0
2018-May-20 21:25N 38°32' W 028°37'0 0.0
2018-May-20 20:58N 38°32' W 028°37'0 0.0
2018-May-20 20:28N 38°32' W 028°37'0 0.0
2018-May-20 19:58N 38°32' W 028°37'0 0.0
2018-May-20 19:28N 38°32' W 028°37'0 0.0
2018-May-20 18:58N 38°32' W 028°37'0 0.0
2018-May-20 18:28N 38°32' W 028°37'0 0.0
2018-May-20 17:58N 38°32' W 028°37'0 0.0
2018-May-20 17:25N 38°32' W 028°37'0 0.0
2018-May-20 16:58N 38°32' W 028°37'0 0.0
2018-May-20 16:28N 38°32' W 028°37'0 0.0
2018-May-20 15:58N 38°32' W 028°37'0 0.0
2018-May-20 15:28N 38°32' W 028°37'0 0.0
2018-May-20 14:58N 38°32' W 028°37'0 0.0
2018-May-20 14:28N 38°32' W 028°37'0 0.0
2018-May-20 13:58N 38°32' W 028°37'0 0.0
2018-May-20 13:28N 38°32' W 028°37'0 0.0
2018-May-20 12:58N 38°32' W 028°37'0 0.0
2018-May-20 12:28N 38°32' W 028°37'0 0.0
2018-May-20 11:58N 38°32' W 028°37'0 0.0
2018-May-20 11:22N 38°32' W 028°37'0 0.0
2018-May-20 10:55N 38°32' W 028°37'0 0.0
2018-May-20 10:28N 38°32' W 028°37'0 0.0
2018-May-20 09:55N 38°32' W 028°37'0 0.0
2018-May-20 09:28N 38°32' W 028°37'0 0.0
2018-May-20 08:58N 38°32' W 028°37'0 0.0
2018-May-20 08:28N 38°32' W 028°37'0 0.0
2018-May-20 07:58N 38°32' W 028°37'0 0.0
2018-May-20 07:25N 38°32' W 028°37'0 0.0
2018-May-20 06:58N 38°32' W 028°37'0 0.0
2018-May-20 06:28N 38°32' W 028°37'0 0.0
2018-May-20 05:58N 38°32' W 028°37'0 0.0
2018-May-20 05:28N 38°32' W 028°37'0 0.0
2018-May-20 04:58N 38°32' W 028°37'0 0.0
2018-May-20 04:25N 38°32' W 028°37'0 0.0
2018-May-20 03:58N 38°32' W 028°37'0 0.0
2018-May-20 03:28N 38°32' W 028°37'0 0.0
2018-May-20 02:58N 38°32' W 028°37'0 0.0
2018-May-20 02:28N 38°32' W 028°37'0 0.0
2018-May-20 01:58N 38°32' W 028°37'0 0.0
2018-May-20 01:25N 38°32' W 028°37'0 0.0
2018-May-20 00:58N 38°32' W 028°37'0 0.0
2018-May-20 00:28N 38°32' W 028°37'0 0.0
2018-May-19 23:58N 38°32' W 028°37'0 0.0
2018-May-19 23:28N 38°32' W 028°37'0 0.0
2018-May-19 22:58N 38°32' W 028°37'0 0.0
2018-May-19 22:28N 38°32' W 028°37'0 0.0
2018-May-19 21:58N 38°32' W 028°37'0 0.0
2018-May-19 21:28N 38°32' W 028°37'0 0.0
2018-May-19 20:58N 38°32' W 028°37'0 0.0
2018-May-19 20:28N 38°32' W 028°37'0 0.0
2018-May-19 19:58N 38°32' W 028°37'0 0.0
2018-May-19 19:28N 38°32' W 028°37'0 0.0
2018-May-19 18:58N 38°32' W 028°37'0 0.0
2018-May-19 18:28N 38°32' W 028°37'0 0.0
2018-May-19 17:58N 38°32' W 028°37'0 0.0
2018-May-19 17:28N 38°32' W 028°37'0 0.0
2018-May-19 16:58N 38°32' W 028°37'0 0.0
2018-May-19 16:28N 38°32' W 028°37'0 0.0
2018-May-19 15:58N 38°32' W 028°37'0 0.0
2018-May-19 15:28N 38°32' W 028°37'0 0.0
2018-May-19 14:58N 38°32' W 028°37'0 0.0
2018-May-19 14:28N 38°32' W 028°37'0 0.0
2018-May-19 13:59N 38°32' W 028°37'1 2.3
2018-May-19 13:30N 38°31' W 028°37'2 4.4
2018-May-19 13:00N 38°29' W 028°38'2 4.6
2018-May-19 12:30N 38°28' W 028°40'2 4.5
2018-May-19 12:00N 38°26' W 028°42'3 5.0
2018-May-19 11:31N 38°24' W 028°44'2 4.6
2018-May-19 11:00N 38°22' W 028°46'2 4.4
2018-May-19 10:30N 38°21' W 028°48'2 3.7
2018-May-19 10:00N 38°19' W 028°49'2 4.2
2018-May-19 09:30N 38°18' W 028°51'2 4.1
2018-May-19 09:00N 38°16' W 028°53'2 4.5
2018-May-19 08:30N 38°15' W 028°55'2 4.9
2018-May-19 08:00N 38°13' W 028°57'2 4.7
2018-May-19 07:30N 38°11' W 028°59'2 4.5
2018-May-19 07:00N 38°12' W 029°01'2 4.8
2018-May-19 06:30N 38°14' W 029°04'3 5.4
2018-May-19 06:00N 38°15' W 029°07'3 5.8
2018-May-19 05:30N 38°17' W 029°10'3 5.9
2018-May-19 05:00N 38°19' W 029°13'3 5.4
2018-May-19 04:30N 38°20' W 029°16'2 5.0
2018-May-19 04:00N 38°21' W 029°19'2 4.6
2018-May-19 03:30N 38°22' W 029°21'2 4.9
2018-May-19 03:00N 38°23' W 029°24'3 6.0
2018-May-19 02:30N 38°25' W 029°27'3 5.8
2018-May-19 02:00N 38°26' W 029°31'3 5.9
2018-May-19 01:30N 38°28' W 029°34'3 5.0
2018-May-19 01:00N 38°29' W 029°37'2 5.0
2018-May-19 00:30N 38°30' W 029°39'3 5.6
2018-May-19 00:00N 38°31' W 029°43'3 5.3
2018-May-18 23:30N 38°33' W 029°46'3 5.3
2018-May-18 23:00N 38°34' W 029°48'3 5.2
2018-May-18 22:30N 38°35' W 029°51'3 5.5
2018-May-18 21:57N 38°37' W 029°54'3 6.2
2018-May-18 21:30N 38°39' W 029°57'3 6.7
2018-May-18 21:00N 38°42' W 030°00'3 6.7
2018-May-18 20:30N 38°44' W 030°03'3 6.2
2018-May-18 19:59N 38°46' W 030°07'61 2.3
2018-May-17 17:28N 39°23' W 031°10'0 0.0
2018-May-17 04:39N 39°23' W 031°10'0 0.0
2018-May-16 23:01N 39°23' W 031°10'0 0.0
2018-May-16 17:25N 39°23' W 031°10'34 2.4
2018-May-16 03:00N 39°06' W 031°48'135 5.6 190 / 101024.9 18.316.119.1
2018-May-15 03:00N 39°00' W 034°42'23 7.8 200 / 151027.6 19.117.620.0
2018-May-15 00:00N 39°00' W 035°12'163 7.8 270 / 271027.6 19.418.720.0
2018-May-14 03:00N 38°54' W 038°42'   220 / 141022.9 20.119.520.7
Track history (hours):
 
Tides and Currents Weather Stations Pressure Air Temp Water Temp Dewpoint Dewpoint Depression Visibility Wind Speed Wind Dir Waves Ship Positions

Stad Amsterdam (Netherlands)

Ship's website: http://www.stadamsterdam.com/content/home/index.xml

Last reported at 2018-May-24 02:30 UTC. Time now 2018-May-24 02:34 UTC.
Position N 39°28' W 028°21'.

Length 76 m; beam 10 m.

Type: Sailing vessel. MMSI: 246494000.

Date/timePositionNaut miles runAvg speedWind from/ knotsBaromVisibWave heightAir tempDewpointWater temp
2018-May-24 02:30N 39°28' W 028°21'3 6.8
2018-May-24 02:00N 39°26' W 028°17'4 7.3
2018-May-24 01:30N 39°24' W 028°13'3 5.8
2018-May-24 01:00N 39°23' W 028°10'3 6.1
2018-May-24 00:30N 39°21' W 028°06'3 6.7
2018-May-24 00:00N 39°20' W 028°02'4 7.1
2018-May-23 23:31N 39°18' W 027°58'4 7.8
2018-May-23 23:00N 39°16' W 027°54'4 7.3
2018-May-23 22:30N 39°15' W 027°50'3 6.5
2018-May-23 22:01N 39°14' W 027°46'3 5.5
2018-May-23 21:30N 39°14' W 027°49'4 7.1
2018-May-23 21:00N 39°13' W 027°54'4 7.7
2018-May-23 20:30N 39°13' W 027°59'4 7.8
2018-May-23 20:00N 39°13' W 028°04'3 5.9
2018-May-23 19:30N 39°12' W 028°07'2 4.6
2018-May-23 19:00N 39°10' W 028°10'3 5.3
2018-May-23 18:30N 39°08' W 028°11'3 5.2
2018-May-23 18:00N 39°06' W 028°13'3 5.1
2018-May-23 17:30N 39°04' W 028°15'3 5.1
2018-May-23 17:00N 39°02' W 028°16'3 6.1
2018-May-23 16:30N 38°59' W 028°18'3 6.9
2018-May-23 16:00N 38°56' W 028°20'3 6.7
2018-May-23 15:30N 38°53' W 028°22'3 5.3
2018-May-23 15:00N 38°50' W 028°24'3 5.9
2018-May-23 14:30N 38°48' W 028°26'3 5.9
2018-May-23 14:00N 38°45' W 028°28'3 5.8
2018-May-23 13:30N 38°43' W 028°30'2 3.6
2018-May-23 13:00N 38°41' W 028°30'1 2.7
2018-May-23 12:30N 38°40' W 028°30'1 1.7
2018-May-23 12:00N 38°39' W 028°31'2 3.8
2018-May-23 11:30N 38°38' W 028°32'2 4.8
2018-May-23 11:00N 38°35' W 028°33'3 5.3
2018-May-23 10:31N 38°33' W 028°35'2 3.7
2018-May-23 09:58N 38°32' W 028°37'0 0.0
2018-May-23 09:28N 38°32' W 028°37'0 0.0
2018-May-23 08:58N 38°32' W 028°37'0 0.0
2018-May-23 08:28N 38°32' W 028°37'0 0.0
2018-May-23 07:58N 38°32' W 028°37'0 0.0
2018-May-23 07:28N 38°32' W 028°37'0 0.0
2018-May-23 06:58N 38°32' W 028°37'0 0.0
2018-May-23 06:28N 38°32' W 028°37'0 0.0
2018-May-23 05:58N 38°32' W 028°37'0 0.0
2018-May-23 05:28N 38°32' W 028°37'0 0.0
2018-May-23 04:58N 38°32' W 028°37'0 0.0
2018-May-23 04:28N 38°32' W 028°37'0 0.0
2018-May-23 03:58N 38°32' W 028°37'0 0.0
2018-May-23 03:28N 38°32' W 028°37'0 0.0
2018-May-23 02:55N 38°32' W 028°37'0 0.0
2018-May-23 02:28N 38°32' W 028°37'0 0.0
2018-May-23 01:58N 38°32' W 028°37'0 0.0
2018-May-23 01:28N 38°32' W 028°37'0 0.0
2018-May-23 00:58N 38°32' W 028°37'0 0.0
2018-May-23 00:28N 38°32' W 028°37'0 0.0
2018-May-22 23:58N 38°32' W 028°37'0 0.0
2018-May-22 23:28N 38°32' W 028°37'0 0.0
2018-May-22 22:58N 38°32' W 028°37'0 0.0
2018-May-22 22:28N 38°32' W 028°37'0 0.0
2018-May-22 21:58N 38°32' W 028°37'0 0.0
2018-May-22 21:28N 38°32' W 028°37'0 0.0
2018-May-22 20:58N 38°32' W 028°37'0 0.0
2018-May-22 20:28N 38°32' W 028°37'0 0.0
2018-May-22 19:58N 38°32' W 028°37'0 0.0
2018-May-22 19:28N 38°32' W 028°37'0 0.0
2018-May-22 18:58N 38°32' W 028°37'0 0.0
2018-May-22 18:28N 38°32' W 028°37'0 0.0
2018-May-22 17:58N 38°32' W 028°37'0 0.0
2018-May-22 17:28N 38°32' W 028°37'0 0.0
2018-May-22 16:58N 38°32' W 028°37'0 0.0
2018-May-22 16:25N 38°32' W 028°37'0 0.0
2018-May-22 15:58N 38°32' W 028°37'0 0.0
2018-May-22 15:28N 38°32' W 028°37'0 0.0
2018-May-22 14:58N 38°32' W 028°37'0 0.0
2018-May-22 14:28N 38°32' W 028°37'0 0.0
2018-May-22 13:58N 38°32' W 028°37'0 0.0
2018-May-22 13:28N 38°32' W 028°37'0 0.0
2018-May-22 12:58N 38°32' W 028°37'0 0.0
2018-May-22 12:25N 38°32' W 028°37'0 0.0
2018-May-22 11:58N 38°32' W 028°37'0 0.0
2018-May-22 11:28N 38°32' W 028°37'0 0.0
2018-May-22 10:58N 38°32' W 028°37'0 0.0
2018-May-22 10:28N 38°32' W 028°37'0 0.0
2018-May-22 09:58N 38°32' W 028°37'0 0.0
2018-May-22 09:28N 38°32' W 028°37'0 0.0
2018-May-22 08:58N 38°32' W 028°37'0 0.0
2018-May-22 08:28N 38°32' W 028°37'0 0.0
2018-May-22 07:58N 38°32' W 028°37'0 0.0
2018-May-22 07:28N 38°32' W 028°37'0 0.0
2018-May-22 06:58N 38°32' W 028°37'0 0.0
2018-May-22 06:28N 38°32' W 028°37'0 0.0
2018-May-22 05:58N 38°32' W 028°37'0 0.0
2018-May-22 05:28N 38°32' W 028°37'0 0.0
2018-May-22 04:58N 38°32' W 028°37'0 0.0
2018-May-22 04:28N 38°32' W 028°37'0 0.0
2018-May-22 03:55N 38°32' W 028°37'0 0.0
2018-May-22 03:28N 38°32' W 028°37'0 0.0
2018-May-22 02:58N 38°32' W 028°37'0 0.0
2018-May-22 02:28N 38°32' W 028°37'0 0.0
2018-May-22 01:58N 38°32' W 028°37'0 0.0
2018-May-22 01:28N 38°32' W 028°37'0 0.0
2018-May-22 00:55N 38°32' W 028°37'0 0.0
2018-May-22 00:28N 38°32' W 028°37'0 0.0
2018-May-21 23:58N 38°32' W 028°37'0 0.0
2018-May-21 23:28N 38°32' W 028°37'0 0.0
2018-May-21 22:58N 38°32' W 028°37'0 0.0
2018-May-21 22:28N 38°32' W 028°37'0 0.0
2018-May-21 21:58N 38°32' W 028°37'0 0.0
2018-May-21 21:28N 38°32' W 028°37'0 0.0
2018-May-21 20:55N 38°32' W 028°37'0 0.0
2018-May-21 20:28N 38°32' W 028°37'0 0.0
2018-May-21 19:58N 38°32' W 028°37'0 0.0
2018-May-21 19:28N 38°32' W 028°37'0 0.0
2018-May-21 18:58N 38°32' W 028°37'0 0.0
2018-May-21 18:28N 38°32' W 028°37'0 0.0
2018-May-21 17:58N 38°32' W 028°37'0 0.0
2018-May-21 17:28N 38°32' W 028°37'0 0.0
2018-May-21 16:58N 38°32' W 028°37'0 0.0
2018-May-21 16:28N 38°32' W 028°37'0 0.0
2018-May-21 15:58N 38°32' W 028°37'0 0.0
2018-May-21 15:28N 38°32' W 028°37'0 0.0
2018-May-21 14:58N 38°32' W 028°37'0 0.0
2018-May-21 14:28N 38°32' W 028°37'0 0.0
2018-May-21 13:58N 38°32' W 028°37'0 0.0
2018-May-21 13:28N 38°32' W 028°37'0 0.0
2018-May-21 12:58N 38°32' W 028°37'0 0.0
2018-May-21 12:28N 38°32' W 028°37'0 0.0
2018-May-21 11:58N 38°32' W 028°37'0 0.0
2018-May-21 11:28N 38°32' W 028°37'0 0.0
2018-May-21 10:58N 38°32' W 028°37'0 0.0
2018-May-21 10:25N 38°32' W 028°37'0 0.0
2018-May-21 09:58N 38°32' W 028°37'0 0.0
2018-May-21 09:25N 38°32' W 028°37'0 0.0
2018-May-21 08:55N 38°32' W 028°37'0 0.0
2018-May-21 08:28N 38°32' W 028°37'0 0.0
2018-May-21 07:58N 38°32' W 028°37'0 0.0
2018-May-21 07:28N 38°32' W 028°37'0 0.0
2018-May-21 06:58N 38°32' W 028°37'0 0.0
2018-May-21 06:25N 38°32' W 028°37'0 0.0
2018-May-21 05:58N 38°32' W 028°37'0 0.0
2018-May-21 05:25N 38°32' W 028°37'0 0.0
2018-May-21 04:58N 38°32' W 028°37'0 0.0
2018-May-21 04:28N 38°32' W 028°37'0 0.0
2018-May-21 03:58N 38°32' W 028°37'0 0.0
2018-May-21 03:28N 38°32' W 028°37'0 0.0
2018-May-21 02:58N 38°32' W 028°37'0 0.0
2018-May-21 02:28N 38°32' W 028°37'0 0.0
2018-May-21 01:58N 38°32' W 028°37'0 0.0
2018-May-21 01:28N 38°32' W 028°37'0 0.0
2018-May-21 00:58N 38°32' W 028°37'0 0.0
2018-May-21 00:28N 38°32' W 028°37'0 0.0
2018-May-20 23:58N 38°32' W 028°37'0 0.0
2018-May-20 23:28N 38°32' W 028°37'0 0.0
2018-May-20 22:58N 38°32' W 028°37'0 0.0
2018-May-20 22:28N 38°32' W 028°37'0 0.0
2018-May-20 21:58N 38°32' W 028°37'0 0.0
2018-May-20 21:25N 38°32' W 028°37'0 0.0
2018-May-20 20:58N 38°32' W 028°37'0 0.0
2018-May-20 20:28N 38°32' W 028°37'0 0.0
2018-May-20 19:58N 38°32' W 028°37'0 0.0
2018-May-20 19:28N 38°32' W 028°37'0 0.0
2018-May-20 18:58N 38°32' W 028°37'0 0.0
2018-May-20 18:28N 38°32' W 028°37'0 0.0
2018-May-20 17:58N 38°32' W 028°37'0 0.0
2018-May-20 17:25N 38°32' W 028°37'0 0.0
2018-May-20 16:58N 38°32' W 028°37'0 0.0
2018-May-20 16:28N 38°32' W 028°37'0 0.0
2018-May-20 15:58N 38°32' W 028°37'0 0.0
2018-May-20 15:28N 38°32' W 028°37'0 0.0
2018-May-20 14:58N 38°32' W 028°37'0 0.0
2018-May-20 14:28N 38°32' W 028°37'0 0.0
2018-May-20 13:58N 38°32' W 028°37'0 0.0
2018-May-20 13:28N 38°32' W 028°37'0 0.0
2018-May-20 12:58N 38°32' W 028°37'0 0.0
2018-May-20 12:28N 38°32' W 028°37'0 0.0
2018-May-20 11:58N 38°32' W 028°37'0 0.0
2018-May-20 11:22N 38°32' W 028°37'0 0.0
2018-May-20 10:55N 38°32' W 028°37'0 0.0
2018-May-20 10:28N 38°32' W 028°37'0 0.0
2018-May-20 09:55N 38°32' W 028°37'0 0.0
2018-May-20 09:28N 38°32' W 028°37'0 0.0
2018-May-20 08:58N 38°32' W 028°37'0 0.0
2018-May-20 08:28N 38°32' W 028°37'0 0.0
2018-May-20 07:58N 38°32' W 028°37'0 0.0
2018-May-20 07:25N 38°32' W 028°37'0 0.0
2018-May-20 06:58N 38°32' W 028°37'0 0.0
2018-May-20 06:28N 38°32' W 028°37'0 0.0
2018-May-20 05:58N 38°32' W 028°37'0 0.0
2018-May-20 05:28N 38°32' W 028°37'0 0.0
2018-May-20 04:58N 38°32' W 028°37'0 0.0
2018-May-20 04:25N 38°32' W 028°37'0 0.0
2018-May-20 03:58N 38°32' W 028°37'0 0.0
2018-May-20 03:28N 38°32' W 028°37'0 0.0
2018-May-20 02:58N 38°32' W 028°37'0 0.0
2018-May-20 02:28N 38°32' W 028°37'0 0.0
2018-May-20 01:58N 38°32' W 028°37'0 0.0
2018-May-20 01:25N 38°32' W 028°37'0 0.0
2018-May-20 00:58N 38°32' W 028°37'0 0.0
2018-May-20 00:28N 38°32' W 028°37'0 0.0
2018-May-19 23:58N 38°32' W 028°37'0 0.0
2018-May-19 23:28N 38°32' W 028°37'0 0.0
2018-May-19 22:58N 38°32' W 028°37'0 0.0
2018-May-19 22:28N 38°32' W 028°37'0 0.0
2018-May-19 21:58N 38°32' W 028°37'0 0.0
2018-May-19 21:28N 38°32' W 028°37'0 0.0
2018-May-19 20:58N 38°32' W 028°37'0 0.0
2018-May-19 20:28N 38°32' W 028°37'0 0.0
2018-May-19 19:58N 38°32' W 028°37'0 0.0
2018-May-19 19:28N 38°32' W 028°37'0 0.0
2018-May-19 18:58N 38°32' W 028°37'0 0.0
2018-May-19 18:28N 38°32' W 028°37'0 0.0
2018-May-19 17:58N 38°32' W 028°37'0 0.0
2018-May-19 17:28N 38°32' W 028°37'0 0.0
2018-May-19 16:58N 38°32' W 028°37'0 0.0
2018-May-19 16:28N 38°32' W 028°37'0 0.0
2018-May-19 15:58N 38°32' W 028°37'0 0.0
2018-May-19 15:28N 38°32' W 028°37'0 0.0
2018-May-19 14:58N 38°32' W 028°37'0 0.0
2018-May-19 14:28N 38°32' W 028°37'0 0.0
2018-May-19 13:59N 38°32' W 028°37'1 2.3
2018-May-19 13:30N 38°31' W 028°37'2 4.4
2018-May-19 13:00N 38°29' W 028°38'2 4.6
2018-May-19 12:30N 38°28' W 028°40'2 4.5
2018-May-19 12:00N 38°26' W 028°42'3 5.0
2018-May-19 11:31N 38°24' W 028°44'2 4.6
2018-May-19 11:00N 38°22' W 028°46'2 4.4
2018-May-19 10:30N 38°21' W 028°48'2 3.7
2018-May-19 10:00N 38°19' W 028°49'2 4.2
2018-May-19 09:30N 38°18' W 028°51'2 4.1
2018-May-19 09:00N 38°16' W 028°53'2 4.5
2018-May-19 08:30N 38°15' W 028°55'2 4.9
2018-May-19 08:00N 38°13' W 028°57'2 4.7
2018-May-19 07:30N 38°11' W 028°59'2 4.5
2018-May-19 07:00N 38°12' W 029°01'2 4.8
2018-May-19 06:30N 38°14' W 029°04'3 5.4
2018-May-19 06:00N 38°15' W 029°07'3 5.8
2018-May-19 05:30N 38°17' W 029°10'3 5.9
2018-May-19 05:00N 38°19' W 029°13'3 5.4
2018-May-19 04:30N 38°20' W 029°16'2 5.0
2018-May-19 04:00N 38°21' W 029°19'2 4.6
2018-May-19 03:30N 38°22' W 029°21'2 4.9
2018-May-19 03:00N 38°23' W 029°24'3 6.0
2018-May-19 02:30N 38°25' W 029°27'3 5.8
2018-May-19 02:00N 38°26' W 029°31'3 5.9
2018-May-19 01:30N 38°28' W 029°34'3 5.0
2018-May-19 01:00N 38°29' W 029°37'2 5.0
2018-May-19 00:30N 38°30' W 029°39'3 5.6
2018-May-19 00:00N 38°31' W 029°43'3 5.3
2018-May-18 23:30N 38°33' W 029°46'3 5.3
2018-May-18 23:00N 38°34' W 029°48'3 5.2
2018-May-18 22:30N 38°35' W 029°51'3 5.5
2018-May-18 21:57N 38°37' W 029°54'3 6.2
2018-May-18 21:30N 38°39' W 029°57'3 6.7
2018-May-18 21:00N 38°42' W 030°00'3 6.7
2018-May-18 20:30N 38°44' W 030°03'3 6.2
2018-May-18 19:59N 38°46' W 030°07'61 2.3
2018-May-17 17:28N 39°23' W 031°10'0 0.0
2018-May-17 04:39N 39°23' W 031°10'0 0.0
2018-May-16 23:01N 39°23' W 031°10'0 0.0
2018-May-16 17:25N 39°23' W 031°10'34 2.4
2018-May-16 03:00N 39°06' W 031°48'135 5.6 190 / 101024.9 18.316.119.1
2018-May-15 03:00N 39°00' W 034°42'23 7.8 200 / 151027.6 19.117.620.0
2018-May-15 00:00N 39°00' W 035°12'163 7.8 270 / 271027.6 19.418.720.0
2018-May-14 03:00N 38°54' W 038°42'   220 / 141022.9 20.119.520.7

Dump ship's entire track history